Location: Frankfurt am Main
(50.1109°N, 8.6821°E)
Time: 15:33:17
(UTC+02:00)

Envisat - Visible Passes

Search period start: 18 September 2019 00:00
Search period end: 28 September 2019 00:00
Orbit: 764 x 766 km, 98.1° (Epoch: 18 September)

Date Brightness Start Highest point End Pass type
(mag) Time Alt. Az. Time Alt. Az. Time Alt. Az.
18 Sep 6.0 21:02:20 10° WSW 21:05:15 15° W 21:08:10 10° NW visible
19 Sep 5.2 20:23:38 10° SSW 20:28:03 30° W 20:32:31 10° NNW visible
21 Sep 5.9 20:50:19 10° SW 20:53:50 19° W 20:57:23 10° NW visible
22 Sep 4.8 20:12:03 10° SSW 20:16:43 36° W 20:21:25 10° NNW visible
23 Sep 6.3 21:18:17 10° W 21:19:44 11° W 21:21:11 10° WNW visible
24 Sep 5.6 20:38:29 10° SW 20:42:27 23° W 20:46:27 10° NW visible
25 Sep 4.3 20:00:32 10° S 20:05:23 45° W 20:10:17 10° NNW visible
26 Sep 6.0 21:05:42 10° WSW 21:08:18 14° W 21:10:55 10° NW visible
27 Sep 5.2 20:26:47 10° SSW 20:31:05 28° W 20:35:26 10° NW visible
